Chicopee, MA

2:29 AM EDT on May 25, 2017 (GMT -0400)
Westover Air Reserve Base / Metropolitan Airport

Weather History for KCEF - August, 2013

Change the Weather History Date:

Saturday, August 31, 2013

  Actual Average Record
Temperature  
Mean Temperature 74 °F -  
Max Temperature 80 °F 76 °F 94 °F (2010)
Min Temperature 69 °F 54 °F 46 °F (1996)
Cooling Degree Days 9    
Growing Degree Days 24 (Base 50)    
Moisture  
Dew Point 73 °F    
Average Humidity 94    
Maximum Humidity 100    
Minimum Humidity 81    
Precipitation  
Precipitation 0.00 in - - ()
Sea Level Pressure  
Sea Level Pressure 29.82 in    
Wind  
Wind Speed 8 mph (South)    
Max Wind Speed 13 mph    
Max Gust Speed -    
Visibility 8 miles    
Events Rain , Thunderstorm    
Averages and records for this station are not official NWS values.
T = Trace of Precipitation, MM = Missing Value Source: NWS Daily Summary

Daily Weather History Graph

Daily Weather History Graph

Search for Another Location

Airport or City:

Trip Planner

Search our weather history database for the weather conditions in past years. The results will help you decide how hot, cold, wet, or windy it might be!

Date:

Astronomy

Aug. 31, 2013 Rise Set
Actual Time 6:14 AM EDT 7:25 PM EDT
Civil Twilight 5:45 AM EDT 7:54 PM EDT
Nautical Twilight 5:11 AM EDT 8:28 PM EDT
Astronomical Twilight 4:34 AM EDT 9:04 PM EDT
Moon 1:37 AM EDT (8/31) 4:24 PM EDT (8/31)
Length of Visible Light 14h 08m
Length of Day
13h 10m
Waning Crescent, 21% of the Moon is Illuminated
Aug 31
Waning Crescent
Sep 5
New
Sep 12
First Quarter
Sep 19
Full
Sep 26
Last Quarter

Hourly Weather History & Observations

Time (EDT) Temp. Dew Point Humidity Pressure Visibility Wind Dir Wind Speed Gust Speed Precip Events Conditions
12:58 AM 70.5 °F 70.3 °F 99% 29.85 in 10.0 mi South 5.8 mph - N/A   Clear
1:58 AM 69.4 °F 69.3 °F 99% 29.83 in 9.0 mi South 4.6 mph - N/A   Clear
2:58 AM 70.5 °F 70.2 °F 99% 29.83 in 10.0 mi South 8.1 mph - N/A   Partly Cloudy
3:58 AM 71.2 °F 70.9 °F 99% 29.81 in 10.0 mi SSE 8.1 mph - N/A   Partly Cloudy
4:58 AM 71.1 °F 70.7 °F 99% 29.83 in 8.0 mi South 6.9 mph - N/A   Clear
5:06 AM 71.6 °F 71.6 °F 100% 29.81 in 8.0 mi South 8.1 mph - N/A   Partly Cloudy
5:39 AM 71.6 °F 71.6 °F 100% 29.81 in 8.0 mi South 6.9 mph - N/A   Mostly Cloudy
5:41 AM 71.6 °F 71.6 °F 100% 29.81 in 8.0 mi South 5.8 mph - N/A   Scattered Clouds
5:57 AM 71.6 °F 71.6 °F 100% 29.82 in 8.0 mi SSW 5.8 mph - N/A   Mostly Cloudy
5:58 AM 71.4 °F 71.1 °F 99% 29.83 in 8.0 mi SSW 5.8 mph - N/A   Mostly Cloudy
6:08 AM 71.6 °F 71.6 °F 100% 29.81 in 7.0 mi South 8.1 mph - N/A Rain Light Rain
6:24 AM 71.6 °F 71.6 °F 100% 29.81 in 5.0 mi South 6.9 mph - N/A Rain Light Rain
6:32 AM 71.6 °F 71.6 °F 100% 29.81 in 5.0 mi South 9.2 mph - N/A   Scattered Clouds
6:58 AM 71.6 °F 71.2 °F 99% 29.83 in 3.0 mi SSW 8.1 mph - 0.00 in   Overcast
7:17 AM 71.6 °F 71.6 °F 100% 29.81 in 3.0 mi SSW 5.8 mph - N/A Rain Light Rain
7:58 AM 72.1 °F 72.0 °F 99% 29.83 in 3.0 mi South 9.2 mph - 0.00 in Rain Light Rain
8:28 AM 73.4 °F 73.4 °F 100% 29.82 in 5.0 mi South 10.4 mph - N/A   Mostly Cloudy
8:58 AM 73.9 °F 73.4 °F 98% 29.85 in 5.0 mi South 8.1 mph - 0.00 in   Overcast
9:34 AM 75.2 °F 73.4 °F 94% 29.83 in 5.0 mi South 10.4 mph - N/A   Mostly Cloudy
9:51 AM 75.2 °F 73.4 °F 94% 29.83 in 6.0 mi South 9.2 mph - N/A   Overcast
9:58 AM 75.6 °F 73.2 °F 92% 29.85 in 6.0 mi South 9.2 mph - N/A   Overcast
10:58 AM 77.0 °F 73.4 °F 89% 29.85 in 7.0 mi South 10.4 mph - N/A   Mostly Cloudy
11:58 AM 78.3 °F 72.5 °F 82% 29.83 in 7.0 mi South 11.5 mph - N/A   Overcast
12:58 PM 77.9 °F 72.5 °F 83% 29.83 in 7.0 mi SSW 11.5 mph - N/A   Overcast
1:58 PM 79.2 °F 73.0 °F 81% 29.83 in 10.0 mi South 12.7 mph - N/A   Mostly Cloudy
2:58 PM 79.9 °F 73.8 °F 81% 29.82 in 10.0 mi South 10.4 mph - N/A   Mostly Cloudy
3:58 PM 78.6 °F 73.4 °F 84% 29.81 in 10.0 mi South 12.7 mph - N/A   Mostly Cloudy
4:57 PM 78.8 °F 73.4 °F 83% 29.79 in 10.0 mi South 8.1 mph - N/A   Mostly Cloudy
4:58 PM 78.4 °F 73.4 °F 84% 29.81 in 10.0 mi South 8.1 mph - N/A   Mostly Cloudy
5:29 PM 78.8 °F 73.4 °F 83% 29.78 in 10.0 mi South 10.4 mph - N/A   Overcast
5:58 PM 77.7 °F 73.9 °F 88% 29.81 in 10.0 mi South 11.5 mph - N/A   Overcast
6:58 PM 76.8 °F 74.1 °F 91% 29.81 in 10.0 mi South 10.4 mph - N/A   Overcast
7:26 PM 77.0 °F 73.4 °F 89% 29.79 in 10.0 mi South 6.9 mph - N/A Thunderstorm Thunderstorm
7:49 PM 77.0 °F 73.4 °F 89% 29.80 in 10.0 mi South 11.5 mph - N/A   Overcast
7:58 PM 76.3 °F 73.9 °F 92% 29.82 in 10.0 mi South 9.2 mph - N/A   Overcast
8:33 PM 77.0 °F 73.4 °F 89% 29.81 in 10.0 mi South 9.2 mph - N/A   Mostly Cloudy
8:57 PM 75.2 °F 73.4 °F 94% 29.80 in 10.0 mi South 6.9 mph - N/A   Overcast
8:58 PM 75.2 °F 73.4 °F 94% 29.82 in 10.0 mi South 6.9 mph - N/A   Overcast
9:58 PM 75.2 °F 75.2 °F 100% 29.83 in 10.0 mi SSW 6.9 mph - N/A   Mostly Cloudy
10:15 PM 75.2 °F 73.4 °F 94% 29.81 in 10.0 mi South 6.9 mph - N/A Rain Light Rain
10:40 PM 75.2 °F 73.4 °F 94% 29.81 in 10.0 mi South 5.8 mph - N/A   Overcast
10:55 PM 75.2 °F 73.4 °F 94% 29.82 in 10.0 mi South 6.9 mph - N/A   Overcast
10:58 PM 74.5 °F 73.9 °F 98% 29.85 in 10.0 mi South 5.8 mph - 0.00 in   Overcast
10:59 PM 75.2 °F 73.4 °F 94% 29.83 in 10.0 mi South 6.9 mph - N/A   Scattered Clouds
11:58 PM 74.3 °F 73.8 °F 98% 29.85 in 10.0 mi SSW 4.6 mph - N/A   Overcast